Flag for U.S.A. Weather past 2 weeks in Cleveland, Ohio, U.S.A.

Now
34 °F

Mostly cloudy.


Feels Like: 29 °F
Forecast: 28 / 33 °F
Wind: 6 mph from West

Location: Cleveland-Hopkins International Airport

Current Time: Dec 28, 2014 at 8:13:41 PM

Latest Report: Dec 28, 2014 at 7:51 PM


Visibility: 10 mi

Pressure: 30.19 "Hg

Humidity: 79%

Dew point: 28 °F

Location of ClevelandLocation

Historic Weather in Cleveland — Graph

°F

Cleveland temperature yesterday

Maximum temperature yesterday: 53 °F (at 12:51 PM)
Minimum temperature yesterday: 42 °F (at 2:51 AM)
Average temperature yesterday: 48 °F

Past Weeks' High & Low Weather Summary

 TemperatureHumidityPressure
High58 °F (Dec 24, 3:51 PM)100% (Dec 24, 7:51 AM)30.38 "Hg (Dec 24, 7:51 AM)
Low24 °F (Dec 22, 1:51 AM)48% (Dec 27, 12:51 PM)29.28 "Hg (Dec 24, 5:51 PM)
Average39 °F79%30.07 "Hg
* Reported Dec 13 6:51 PM — Dec 28 6:51 PM, Cleveland, Weather by CustomWeather, © 2014

Note: Actual official high and low records may vary slightly from our data, if they occured in-between our weather recording intervals... More about our weather records

Advertising

Cleveland weather history for previous 24 hours

 ConditionsComfort  
Time TempWeatherWind HumidityBarometerVisibility
6:51 PM
Dec 28
35 °FMostly cloudy.6 mph75%30.18 "Hg10 mi
5:51 PM34 °FOvercast.7 mph79%30.18 "Hg10 mi
4:51 PM35 °FCloudy.9 mph78%30.16 "Hg10 mi
3:51 PM36 °FCloudy.10 mph79%30.14 "Hg10 mi
2:51 PM37 °FMore clouds than sun.9 mph76%30.13 "Hg10 mi
1:51 PM37 °FMostly cloudy.7 mph79%30.10 "Hg10 mi
12:51 PM37 °FMostly cloudy.12 mph79%30.10 "Hg10 mi
11:51 AM36 °FMostly cloudy.8 mph82%30.12 "Hg10 mi
10:51 AM37 °FMostly cloudy.12 mph79%30.13 "Hg10 mi
9:51 AM36 °FMostly cloudy.10 mph82%30.11 "Hg10 mi
8:51 AM36 °FOvercast.8 mph82%30.10 "Hg10 mi
7:51 AM36 °FOvercast.7 mph82%30.09 "Hg10 mi
6:51 AM36 °FOvercast.8 mph85%30.09 "Hg10 mi
5:51 AM36 °FMostly cloudy.10 mph89%30.06 "Hg10 mi
4:51 AM36 °FOvercast.9 mph89%30.04 "Hg7 mi
3:51 AM36 °FFog.8 mph89%30.04 "Hg6 mi
2:51 AM36 °FLight rain. Mostly cloudy.13 mph89%30.03 "Hg8 mi
1:51 AM39 °FLight rain. Fog.18 mph89%30.01 "Hg5 mi
12:58 AM42 °FLight rain. Fog.12 mph89%30.01 "Hg5 mi
11:51 PM
Dec 27
47 °FLight rain. Fog.9 mph93%30.00 "Hg5 mi
10:51 PM47 °FOvercast.12 mph90%30.02 "Hg7 mi
9:51 PM48 °FOvercast.10 mph86%30.02 "Hg10 mi
8:51 PM48 °FOvercast.13 mph83%30.03 "Hg10 mi
Weather by CustomWeather, © 2014

See weather overviewHow to use our weather pages